Location: *
(51.5000°N, 0.1100°W)
Time: 20:40:22
(UTC+00:00)

NPP - Pass Details

Date: 25 May 2024
Orbit: 826 x 827 km, 98.7° (Epoch: 24 June)

Event Time Altitude Azimuth Distance (km) Brightness Sun altitude
Rises 01:59:54 0° 15° (NNE) 3,381 8.5 -12.7°
Reaches altitude 10° 02:02:16 10° 16° (NNE) 2,444 7.5 -12.5°
Maximum altitude 02:07:42 87° 105° (ESE) 836 3.7 -12.1°
Enters shadow 02:12:18 15° 196° (SSW) 2,120 5.2 -11.7°
